Regional Weather Roundup
Issued by NWS

Home | Current Version | Previous Version | Text Only | Print | Product List | Glossary Off
Versions: 1 2 3 4 5 6 7 8 9 10 11 12 13 14 15 16 17 18 19 20 21 22 23 24 25 26 27 28 29 30 31 32 33 34 35 36 37 38 39 40 41 42 43 44 45 46 47 48 49 50

000
ASUS44 KMEG 011610
RWRTN
TENNESSEE HOURLY STATE WEATHER ROUNDUP
NATIONAL WEATHER SERVICE MEMPHIS TN
1100 AM CDT SAT AUG 01 2015

TNZ002-004-019-021-049-052-054-088>092-011700-
WEST TENNESSEE

CITY           SKY/WX    TMP DP  RH WIND       PRES   REMARKS
MEMPHIS INTL   MOSUNNY   91  65  41 N6        30.04S HX  93
NWS MEMPHIS      N/A     89 N/A N/A MISG        N/A
JACKSON        SUNNY     90  66  45 CALM      30.05R HX  92
DYERSBURG        N/A    N/A N/A N/A MISG        N/A
PARIS          SUNNY     84  68  58 CALM      30.05S
LEXINGTON      SUNNY     86  70  58 CALM      30.04S HX  90
$$

TNZ008-025-027-028-033-062-065-066-011700-
NORTH MIDDLE TENNESSEE

CITY           SKY/WX    TMP DP  RH WIND       PRES   REMARKS
NASHVILLE      MOSUNNY   87  67  51 N5        30.04S HX  90
CLARKSVILLE    SUNNY     85  70  60 NE3       30.04S
SMYRNA         MOSUNNY   90  69  49 N7        30.05S HX  94
CROSSVILLE     MOSUNNY   82  63  52 VRB6      30.10S
$$

TNZ061-075-076-078-094-096-097-011700-
SOUTH MIDDLE TENNESSEE

CITY           SKY/WX    TMP DP  RH WIND       PRES   REMARKS
FAYETTEVILLE   SUNNY     84  63  48 E9        30.06S
TULLAHOMA      SUNNY     82  64  54 VRB6      30.08R
WINCHESTER     MOSUNNY   84  66  54 NE7       30.06S
MCMINNVILLE    SUNNY     84  70  61 VRB5      30.07R
COLUMBIA       SUNNY     88  68  51 N7        30.03S HX  91
SHELBYVILLE    SUNNY     88  70  55 N7        30.06S HX  92
$$

TNZ017-018-042-046-047-011700-
NORTHEAST TENNESSEE

CITY           SKY/WX    TMP DP  RH WIND       PRES   REMARKS
TRI CITIES     MOSUNNY   81  58  45 VRB3      30.07S
ELIZABETHTON   SUNNY     79  59  50 W7        30.07F
$$

TNZ012-013-036-069-073-074-011700-
CENTRAL EAST TENNESSEE

CITY           SKY/WX    TMP DP  RH WIND       PRES   REMARKS
KNOXVILLE      MOSUNNY   84  61  45 NE7       30.05S
OAK RIDGE      SUNNY     85  62  46 CALM      30.06S
GATLINBURG       N/A     84  55  37 N3        30.05S
MORRISTOWN     SUNNY     82  61  47 VRB6      30.07S
$$

TNZ083-085-099-011700-
SOUTHEAST TENNESSEE

CITY           SKY/WX    TMP DP  RH WIND       PRES   REMARKS
CHATTANOOGA    MOSUNNY   86  63  45 NE14G21   30.04R
$$

SKY/WX REPORTED AS FAIR MEANS FEW OR NO CLOUDS BELOW
12 THOUSAND FEET.




USA.gov is the U.S. government's official web portal to all federal, state and local government web resources and services.